| time (UTC) | temp F | wind direction | speed knots | gust knots | rain 1hr in | rain 24hr in | rain mn in | humidity % | barometer mb |
| 20260510153836 | 71 | 209 | 0.9 | 3.5 | 0.00 | 0.00 | 0.00 | 58 | 1013.0 |
| 20260510153348 | 71 | 50 | 0.9 | 4.3 | 0.00 | 0.00 | 0.00 | 58 | 1013.1 |
| 20260510153043 | 70 | 50 | 1.7 | 5.2 | 0.00 | 0.00 | 0.00 | 57 | 1012.9 |
| 20260510152841 | 70 | 47 | 2.6 | 5.2 | 0.00 | 0.00 | 0.00 | 58 | 1013.1 |
| 20260510152354 | 70 | 323 | 2.6 | 3.5 | 0.00 | 0.00 | 0.00 | 57 | 1013.1 |
| 20260510151846 | 70 | 71 | 1.7 | 6.1 | 0.00 | 0.00 | 0.00 | 59 | 1013.0 |
| 20260510151541 | 69 | 198 | 0.0 | 6.1 | 0.00 | 0.00 | 0.00 | 59 | 1012.9 |
| 20260510151339 | 70 | 138 | 0.9 | 6.1 | 0.00 | 0.00 | 0.00 | 60 | 1013.0 |
| 20260510150852 | 69 | 141 | 1.7 | 4.3 | 0.00 | 0.00 | 0.00 | 61 | 1013.0 |
| 20260510150346 | 69 | 327 | 1.7 | 5.2 | 0.00 | 0.00 | 0.00 | 60 | 1013.0 |
| 20260510150037 | 68 | 82 | 2.6 | 5.2 | 0.00 | 0.00 | 0.00 | 62 | 1012.8 |
| 20260510145836 | 69 | 166 | 0.0 | 2.6 | 0.00 | 0.00 | 0.00 | 64 | 1013.0 |
| 20260510145349 | 68 | 135 | 1.7 | 3.5 | 0.00 | 0.00 | 0.00 | 66 | 1013.0 |
| 20260510144842 | 68 | 156 | 0.9 | 3.5 | 0.00 | 0.00 | 0.00 | 71 | 1012.9 |
| 20260510144523 | 66 | 190 | 0.0 | 0.9 | 0.00 | 0.00 | 0.00 | 72 | 1012.8 |
| 20260510144416 | 66 | 190 | 0.0 | 0.9 | 0.00 | 0.00 | 0.00 | 75 | 1012.9 |
| 20260510143847 | 66 | 190 | 0.0 | 0.9 | 0.00 | 0.00 | 0.00 | 74 | 1012.8 |
| 20260510143346 | 66 | 190 | 0.0 | 0.9 | 0.00 | 0.00 | 0.00 | 72 | 1012.9 |
| 20260510143041 | 65 | 190 | 0.0 | 0.9 | 0.00 | 0.00 | 0.00 | 72 | 1012.8 |
| 20260510142839 | 65 | 190 | 0.0 | 0.0 | 0.00 | 0.00 | 0.00 | 72 | 1013.0 |
| 20260510142352 | 64 | 190 | 0.0 | 0.0 | 0.00 | 0.00 | 0.00 | 73 | 1013.0 |
| 20260510141844 | 63 | 190 | 0.0 | 0.9 | 0.00 | 0.00 | 0.00 | 74 | 1013.0 |
| 20260510141520 | 63 | 190 | 0.0 | 0.9 | 0.00 | 0.00 | 0.00 | 75 | 1012.9 |
| 20260510141418 | 63 | 190 | 0.0 | 0.9 | 0.00 | 0.00 | 0.00 | 76 | 1013.0 |
| 20260510140006 | 61 | 190 | 0.0 | 0.9 | 0.00 | 0.00 | 0.00 | 77 | 1012.9 |
| 20260510134504 | 60 | 190 | 0.0 | 0.9 | 0.00 | 0.00 | 0.00 | 78 | 1012.9 |
| 20260510133102 | 58 | 190 | 0.0 | 0.9 | 0.00 | 0.00 | 0.00 | 80 | 1012.9 |
| 20260510131559 | 56 | 190 | 0.0 | 1.7 | 0.00 | 0.00 | 0.00 | 82 | 1012.9 |
| 20260510130052 | 55 | 190 | 0.0 | 0.0 | 0.00 | 0.00 | 0.00 | 86 | 1013.0 |
| 20260510124546 | 53 | 190 | 0.0 | 0.0 | 0.00 | 0.00 | 0.00 | 90 | 1013.0 |
| 20260510123043 | 52 | 190 | 0.0 | 0.9 | 0.00 | 0.00 | 0.00 | 92 | 1012.9 |
| 20260510121539 | 50 | 190 | 0.0 | 0.0 | 0.00 | 0.00 | 0.00 | 96 | 1012.5 |
| 20260510120037 | 47 | 190 | 0.0 | 0.0 | 0.00 | 0.00 | 0.00 | 97 | 1012.5 |
| 20260510114536 | 46 | 190 | 0.0 | 0.9 | 0.00 | 0.00 | 0.00 | 98 | 1012.7 |
| 20260510113039 | 44 | 282 | 0.0 | 0.0 | 0.00 | 0.00 | 0.00 | 98 | 1012.6 |
| 20260510111540 | 43 | 282 | 0.0 | 0.0 | 0.00 | 0.00 | 0.00 | 98 | 1012.5 |
| 20260510110038 | 42 | 282 | 0.0 | 0.0 | 0.00 | 0.00 | 0.00 | 97 | 1012.3 |
| 20260510104530 | 42 | 282 | 0.0 | 0.0 | 0.00 | 0.00 | 0.00 | 98 | 1012.2 |
| 20260510103027 | 42 | 282 | 0.0 | 0.0 | 0.00 | 0.00 | 0.00 | 97 | 1011.9 |
| 20260510101525 | 42 | 282 | 0.0 | 0.0 | 0.00 | 0.00 | 0.00 | 97 | 1011.6 |
| 20260510100022 | 42 | 282 | 0.0 | 0.0 | 0.00 | 0.00 | 0.00 | 97 | 1011.4 |
| 20260510094519 | 42 | 282 | 0.0 | 0.0 | 0.00 | 0.00 | 0.00 | 97 | 1011.2 |
| 20260510093025 | 42 | 282 | 0.0 | 0.0 | 0.00 | 0.00 | 0.00 | 97 | 1011.0 |
| 20260510091515 | 43 | 282 | 0.0 | 0.0 | 0.00 | 0.00 | 0.00 | 97 | 1010.9 |
| 20260510090022 | 43 | 282 | 0.0 | 0.0 | 0.00 | 0.00 | 0.00 | 97 | 1010.9 |
| 20260510084517 | 43 | 282 | 0.0 | 0.0 | 0.00 | 0.00 | 0.00 | 97 | 1010.7 |
| 20260510083012 | 43 | 282 | 0.0 | 0.0 | 0.00 | 0.00 | 0.00 | 97 | 1010.7 |
| 20260510081510 | 43 | 282 | 0.0 | 0.0 | 0.00 | 0.00 | 0.00 | 97 | 1010.6 |
| 20260510080114 | 43 | 282 | 0.0 | 0.0 | 0.00 | 0.00 | 0.00 | 97 | 1010.6 |
| 20260510074507 | 44 | 282 | 0.0 | 0.0 | 0.00 | 0.00 | 0.00 | 97 | 1010.5 |
| 20260510073007 | 44 | 282 | 0.0 | 0.0 | 0.00 | 0.00 | 0.00 | 97 | 1010.7 |
| 20260510071506 | 44 | 282 | 0.0 | 0.0 | 0.00 | 0.00 | 0.00 | 97 | 1010.5 |
| 20260510070004 | 44 | 282 | 0.0 | 0.0 | 0.00 | 0.00 | 0.00 | 96 | 1010.4 |
| 20260510064502 | 44 | 282 | 0.0 | 0.0 | 0.00 | 0.00 | 0.00 | 96 | 1010.3 |
| 20260510063001 | 45 | 282 | 0.0 | 0.0 | 0.00 | 0.00 | 0.00 | 96 | 1010.3 |
| 20260510061559 | 45 | 282 | 0.0 | 0.0 | 0.00 | 0.00 | 0.00 | 96 | 1010.3 |
| 20260510060057 | 46 | 282 | 0.0 | 0.0 | 0.00 | 0.00 | 0.00 | 97 | 1010.4 |
| 20260510054555 | 46 | 282 | 0.0 | 0.0 | 0.00 | 0.00 | 0.00 | 96 | 1010.5 |
| 20260510053056 | 46 | 282 | 0.0 | 1.7 | 0.00 | 0.00 | 0.00 | 96 | 1010.5 |
| 20260510051556 | 46 | 282 | 0.0 | 0.0 | 0.00 | 0.00 | 0.00 | 96 | 1010.5 |
| 20260510050050 | 47 | 282 | 0.0 | 0.0 | 0.00 | 0.00 | 0.00 | 96 | 1010.5 |
| 20260510044605 | 47 | 282 | 0.0 | 0.0 | 0.00 | 0.00 | 0.00 | 95 | 1010.3 |
| 20260510043045 | 48 | 282 | 0.0 | 0.0 | 0.00 | 0.00 | 0.00 | 95 | 1010.2 |
| 20260510041847 | 48 | 282 | 0.0 | 0.0 | 0.00 | 0.00 | 0.00 | 95 | 1010.3 |
| 20260510041541 | 48 | 282 | 0.0 | 0.0 | 0.00 | 0.00 | 0.00 | 94 | 1010.1 |
| 20260510041341 | 49 | 282 | 0.0 | 0.0 | 0.00 | 0.00 | 0.00 | 94 | 1010.3 |
| 20260510040853 | 49 | 282 | 0.0 | 0.0 | 0.00 | 0.00 | 0.00 | 95 | 1010.3 |
| 20260510040406 | 49 | 282 | 0.0 | 0.9 | 0.00 | 0.00 | 0.00 | 95 | 1010.3 |
| 20260510040055 | 49 | 282 | 0.0 | 0.9 | 0.00 | 0.00 | 0.00 | 95 | 1010.2 |
| 20260510035854 | 49 | 282 | 0.0 | 0.9 | 0.00 | 0.00 | 0.00 | 95 | 1010.3 |
| 20260510035346 | 49 | 282 | 0.0 | 0.0 | 0.00 | 0.00 | 0.00 | 95 | 1010.3 |
| 20260510034838 | 50 | 282 | 0.0 | 0.0 | 0.00 | 0.00 | 0.00 | 95 | 1010.0 |
| 20260510034550 | 49 | 282 | 0.0 | 1.7 | 0.00 | 0.00 | 0.00 | 95 | 1010.0 |
| 20260510034350 | 50 | 282 | 0.0 | 1.7 | 0.00 | 0.00 | 0.00 | 94 | 1010.3 |
| 20260510033843 | 50 | 282 | 0.0 | 0.0 | 0.00 | 0.00 | 0.00 | 94 | 1010.3 |
| 20260510033355 | 50 | 282 | 0.0 | 0.0 | 0.00 | 0.00 | 0.00 | 94 | 1010.3 |
| 20260510033048 | 49 | 282 | 0.0 | 0.0 | 0.00 | 0.00 | 0.00 | 94 | 1010.1 |
| 20260510032848 | 50 | 282 | 0.0 | 0.0 | 0.00 | 0.00 | 0.00 | 94 | 1010.3 |
| 20260510032344 | 50 | 282 | 0.0 | 0.0 | 0.00 | 0.00 | 0.00 | 94 | 1010.2 |
| 20260510031912 | 51 | 282 | 0.0 | 0.0 | 0.00 | 0.00 | 0.00 | 94 | 1010.2 |
| 20260510031547 | 50 | 282 | 0.0 | 0.0 | 0.00 | 0.00 | 0.00 | 93 | 1010.0 |
| 20260510031346 | 51 | 282 | 0.0 | 0.0 | 0.00 | 0.00 | 0.00 | 93 | 1010.2 |
| 20260510030839 | 51 | 282 | 0.0 | 0.0 | 0.00 | 0.00 | 0.00 | 93 | 1010.2 |
| 20260510030354 | 51 | 282 | 0.0 | 0.9 | 0.00 | 0.00 | 0.00 | 92 | 1010.2 |
| 20260510030007 | 50 | 282 | 0.0 | 0.9 | 0.00 | 0.00 | 0.00 | 92 | 1010.0 |
| 20260510025902 | 51 | 282 | 0.0 | 0.9 | 0.00 | 0.00 | 0.00 | 92 | 1010.1 |
| 20260510025355 | 51 | 282 | 0.0 | 0.9 | 0.00 | 0.00 | 0.00 | 92 | 1010.2 |
| 20260510024847 | 51 | 282 | 0.0 | 1.7 | 0.00 | 0.00 | 0.00 | 92 | 1010.2 |
| 20260510024542 | 51 | 282 | 0.0 | 1.7 | 0.00 | 0.00 | 0.00 | 92 | 1010.1 |
| 20260510024340 | 52 | 282 | 0.0 | 0.0 | 0.00 | 0.00 | 0.00 | 92 | 1010.2 |
| 20260510023852 | 52 | 282 | 0.0 | 0.0 | 0.00 | 0.00 | 0.00 | 92 | 1010.1 |
| 20260510023345 | 52 | 282 | 0.0 | 0.0 | 0.00 | 0.00 | 0.00 | 91 | 1010.2 |
| 20260510023059 | 51 | 282 | 0.0 | 0.0 | 0.00 | 0.00 | 0.00 | 91 | 1009.9 |
| 20260510022856 | 52 | 282 | 0.0 | 0.0 | 0.00 | 0.00 | 0.00 | 91 | 1010.1 |
| 20260510022349 | 52 | 282 | 0.0 | 0.0 | 0.00 | 0.00 | 0.00 | 91 | 1010.0 |
| 20260510021842 | 53 | 282 | 0.0 | 0.0 | 0.00 | 0.00 | 0.00 | 90 | 1009.9 |
| 20260510021556 | 52 | 282 | 0.0 | 0.0 | 0.00 | 0.00 | 0.00 | 90 | 1009.8 |
| 20260510021356 | 53 | 282 | 0.0 | 0.0 | 0.00 | 0.00 | 0.00 | 90 | 1009.9 |
| 20260510020847 | 53 | 282 | 0.0 | 0.0 | 0.00 | 0.00 | 0.00 | 89 | 1009.8 |
| 20260510020401 | 53 | 282 | 0.0 | 0.0 | 0.00 | 0.00 | 0.00 | 88 | 1009.8 |
| 20260510020051 | 53 | 282 | 0.0 | 0.0 | 0.00 | 0.00 | 0.00 | 88 | 1009.4 |
| 20260510015850 | 53 | 282 | 0.0 | 0.0 | 0.00 | 0.00 | 0.00 | 88 | 1009.6 |
| 20260510015341 | 54 | 282 | 0.0 | 0.0 | 0.00 | 0.00 | 0.00 | 88 | 1009.6 |
| 20260510014834 | 54 | 282 | 0.0 | 0.0 | 0.00 | 0.00 | 0.00 | 88 | 1009.6 |
| 20260510014509 | 54 | 282 | 0.0 | 0.0 | 0.00 | 0.00 | 0.00 | 87 | 1009.2 |
| 20260510014409 | 54 | 282 | 0.0 | 0.0 | 0.00 | 0.00 | 0.00 | 87 | 1009.4 |
| 20260510013840 | 54 | 282 | 0.0 | 0.0 | 0.00 | 0.00 | 0.00 | 86 | 1009.3 |
| 20260510013354 | 55 | 282 | 0.0 | 0.0 | 0.00 | 0.00 | 0.00 | 86 | 1009.1 |
| 20260510013007 | 54 | 282 | 0.0 | 0.0 | 0.00 | 0.00 | 0.00 | 85 | 1008.9 |
| 20260510012846 | 55 | 282 | 0.0 | 0.0 | 0.00 | 0.00 | 0.00 | 85 | 1009.1 |
| 20260510012338 | 55 | 282 | 0.0 | 0.0 | 0.00 | 0.00 | 0.00 | 85 | 1009.0 |
| 20260510011851 | 55 | 282 | 0.0 | 0.0 | 0.00 | 0.00 | 0.00 | 84 | 1008.9 |
| 20260510011552 | 55 | 282 | 0.0 | 0.0 | 0.00 | 0.00 | 0.00 | 84 | 1008.6 |
| 20260510011344 | 56 | 282 | 0.0 | 0.0 | 0.00 | 0.00 | 0.00 | 83 | 1008.8 |
| 20260510010856 | 56 | 282 | 0.0 | 0.0 | 0.00 | 0.00 | 0.00 | 83 | 1008.7 |
| 20260510010350 | 56 | 282 | 0.0 | 1.7 | 0.00 | 0.00 | 0.00 | 82 | 1008.6 |
| 20260510010050 | 56 | 282 | 0.0 | 1.7 | 0.00 | 0.00 | 0.00 | 81 | 1008.3 |
| 20260510005843 | 57 | 282 | 0.9 | 1.7 | 0.00 | 0.00 | 0.00 | 81 | 1008.5 |
| 20260510005354 | 57 | 282 | 284.2 | 284.2 | 0.00 | 0.00 | 0.00 | 81 | 1008.2 |
| 20260510004908 | 57 | 282 | 0.0 | 1.7 | 0.00 | 0.00 | 0.00 | 80 | 1008.3 |
| 20260510004539 | 57 | 282 | 0.0 | 1.7 | 0.00 | 0.00 | 0.00 | 79 | 1008.0 |
| 20260510004339 | 58 | 282 | 0.9 | 1.7 | 0.00 | 0.00 | 0.00 | 79 | 1008.2 |
| 20260510003851 | 58 | 282 | 0.0 | 0.0 | 0.00 | 0.00 | 0.00 | 78 | 1008.2 |
| 20260510003344 | 58 | 282 | 0.0 | 0.0 | 0.00 | 0.00 | 0.00 | 78 | 1008.1 |
| 20260510003037 | 58 | 282 | 0.0 | 0.0 | 0.00 | 0.00 | 0.00 | 77 | 1007.8 |
| 20260510002837 | 58 | 282 | 0.0 | 0.0 | 0.00 | 0.00 | 0.00 | 77 | 1008.0 |
| 20260510002348 | 59 | 282 | 0.0 | 0.0 | 0.00 | 0.00 | 0.00 | 76 | 1007.9 |
| 20260510001841 | 59 | 282 | 0.0 | 0.0 | 0.00 | 0.00 | 0.00 | 75 | 1008.0 |
| 20260510001556 | 59 | 282 | 0.0 | 0.0 | 0.00 | 0.00 | 0.00 | 74 | 1007.7 |
| 20260510001353 | 60 | 282 | 0.0 | 0.0 | 0.00 | 0.00 | 0.00 | 75 | 1007.9 |
| 20260510000847 | 60 | 282 | 0.0 | 0.0 | 0.00 | 0.00 | 0.00 | 73 | 1007.7 |
| 20260510000341 | 61 | 282 | 0.0 | 0.0 | 0.00 | 0.00 | 0.00 | 72 | 1007.7 |
| 20260510000030 | 60 | 282 | 0.0 | 0.0 | 0.00 | 0.00 | 0.00 | 72 | 1007.3 |
| 20260509235929 | 61 | 282 | 0.0 | 0.0 | 0.00 | 0.00 | 0.00 | 71 | 1007.7 |
| 20260509235337 | 61 | 282 | 0.0 | 0.0 | 0.00 | 0.00 | 0.00 | 72 | 1007.6 |
| 20260509234850 | 62 | 282 | 0.0 | 0.0 | 0.00 | 0.00 | 0.00 | 71 | 1007.6 |
| 20260509234547 | 62 | 282 | 0.0 | 0.0 | 0.00 | 0.00 | 0.00 | 69 | 1007.3 |
| 20260509234343 | 63 | 282 | 0.0 | 0.0 | 0.00 | 0.00 | 0.00 | 68 | 1007.6 |
| 20260509233915 | 63 | 282 | 0.0 | 0.0 | 0.00 | 0.00 | 0.00 | 68 | 1007.7 |
| 20260509233407 | 63 | 282 | 0.0 | 0.0 | 0.00 | 0.00 | 0.00 | 67 | 1007.7 |
| 20260509233039 | 63 | 282 | 0.0 | 0.0 | 0.00 | 0.00 | 0.00 | 68 | 1007.4 |
| 20260509232839 | 63 | 282 | 0.0 | 0.0 | 0.00 | 0.00 | 0.00 | 67 | 1007.7 |
| 20260509232351 | 64 | 282 | 0.0 | 0.0 | 0.00 | 0.00 | 0.00 | 66 | 1007.7 |
| 20260509231903 | 65 | 282 | 0.0 | 0.9 | 0.00 | 0.00 | 0.00 | 65 | 1007.7 |
| 20260509231556 | 65 | 282 | 0.0 | 1.7 | 0.00 | 0.00 | 0.00 | 64 | 1007.3 |
| 20260509231355 | 65 | 282 | 0.0 | 1.7 | 0.00 | 0.00 | 0.00 | 65 | 1007.6 |
| 20260509230846 | 66 | 282 | 0.9 | 1.7 | 0.00 | 0.00 | 0.00 | 63 | 1007.6 |
| 20260509230418 | 66 | 282 | 0.0 | 0.0 | 0.00 | 0.00 | 0.00 | 62 | 1007.7 |
| 20260509230047 | 66 | 282 | 0.0 | 0.0 | 0.00 | 0.00 | 0.00 | 62 | 1007.4 |
| 20260509225846 | 67 | 282 | 0.0 | 1.7 | 0.00 | 0.00 | 0.00 | 60 | 1007.7 |
| 20260509225339 | 67 | 282 | 0.0 | 1.7 | 0.00 | 0.00 | 0.00 | 58 | 1007.7 |
| 20260509224912 | 68 | 282 | 0.9 | 1.7 | 0.00 | 0.00 | 0.00 | 57 | 1007.8 |
| 20260509224545 | 67 | 282 | 0.0 | 1.7 | 0.00 | 0.00 | 0.00 | 55 | 1007.5 |
| 20260509224343 | 68 | 282 | 0.9 | 1.7 | 0.00 | 0.00 | 0.00 | 56 | 1007.9 |
| 20260509223856 | 69 | 175 | 0.0 | 1.7 | 0.00 | 0.00 | 0.00 | 58 | 1007.9 |
| 20260509223347 | 69 | 175 | 0.0 | 1.7 | 0.00 | 0.00 | 0.00 | 55 | 1007.9 |
| 20260509223041 | 69 | 175 | 0.9 | 1.7 | 0.00 | 0.00 | 0.00 | 54 | 1007.6 |
| 20260509222841 | 69 | 175 | 0.0 | 1.7 | 0.00 | 0.00 | 0.00 | 54 | 1007.9 |
| 20260509222433 | 69 | 175 | 0.9 | 1.7 | 0.00 | 0.00 | 0.00 | 55 | 1007.9 |
| 20260509221901 | 69 | 175 | 0.0 | 1.7 | 0.00 | 0.00 | 0.00 | 57 | 1007.8 |
| 20260509221552 | 68 | 175 | 0.0 | 1.7 | 0.00 | 0.00 | 0.00 | 57 | 1007.5 |
| 20260509221351 | 69 | 175 | 0.9 | 1.7 | 0.00 | 0.00 | 0.00 | 56 | 1007.9 |
| 20260509220844 | 69 | 316 | 0.9 | 2.6 | 0.00 | 0.00 | 0.00 | 58 | 1007.9 |
| 20260509220358 | 69 | 63 | 0.9 | 2.6 | 0.00 | 0.00 | 0.00 | 57 | 1007.9 |
| 20260509220047 | 68 | 349 | 1.7 | 2.6 | 0.00 | 0.00 | 0.00 | 57 | 1007.6 |
| 20260509215847 | 69 | 279 | 1.7 | 2.6 | 0.00 | 0.00 | 0.00 | 59 | 1007.9 |
| 20260509215441 | 69 | 81 | 0.9 | 3.5 | 0.00 | 0.00 | 0.00 | 57 | 1007.9 |
| 20260509214847 | 68 | 307 | 0.9 | 2.6 | 0.00 | 0.00 | 0.00 | 57 | 1007.9 |
| 20260509214542 | 68 | 306 | 0.9 | 2.6 | 0.00 | 0.00 | 0.00 | 58 | 1007.6 |
| 20260509214340 | 69 | 306 | 1.7 | 2.6 | 0.00 | 0.00 | 0.00 | 58 | 1007.9 |
| 20260509213851 | 69 | 63 | 0.9 | 4.3 | 0.00 | 0.00 | 0.00 | 56 | 1007.9 |
| 20260509213344 | 69 | 98 | 1.7 | 4.3 | 0.00 | 0.00 | 0.00 | 58 | 1007.9 |
| 20260509213037 | 68 | 63 | 0.9 | 2.6 | 0.00 | 0.00 | 0.00 | 57 | 1007.6 |
| 20260509212836 | 69 | 131 | 0.9 | 2.6 | 0.00 | 0.00 | 0.00 | 57 | 1007.9 |
| 20260509212348 | 69 | 46 | 0.9 | 3.5 | 0.00 | 0.00 | 0.00 | 58 | 1007.9 |
| 20260509211901 | 68 | 46 | 1.7 | 3.5 | 0.00 | 0.00 | 0.00 | 60 | 1007.9 |
| 20260509211555 | 68 | 200 | 0.0 | 1.7 | 0.00 | 0.00 | 0.00 | 59 | 1007.6 |
| 20260509211352 | 68 | 200 | 0.9 | 1.7 | 0.00 | 0.00 | 0.00 | 60 | 1007.9 |
| 20260509210849 | 67 | 310 | 0.9 | 2.6 | 0.00 | 0.00 | 0.00 | 61 | 1008.0 |
| 20260509210344 | 68 | 310 | 0.9 | 3.5 | 0.00 | 0.00 | 0.00 | 59 | 1007.9 |
| 20260509210053 | 67 | 310 | 0.9 | 3.5 | 0.00 | 0.00 | 0.00 | 59 | 1007.6 |
| 20260509205854 | 68 | 51 | 0.9 | 3.5 | 0.00 | 0.00 | 0.00 | 59 | 1007.9 |
| 20260509205407 | 68 | 38 | 0.0 | 2.6 | 0.00 | 0.00 | 0.00 | 61 | 1007.9 |
| 20260509204840 | 68 | 46 | 1.7 | 2.6 | 0.00 | 0.00 | 0.00 | 61 | 1007.9 |
| 20260509204530 | 67 | 37 | 0.9 | 2.6 | 0.00 | 0.00 | 0.00 | 62 | 1007.6 |
| 20260509203855 | 68 | 50 | 0.9 | 2.6 | 0.00 | 0.00 | 0.00 | 61 | 1007.9 |
| 20260509203347 | 67 | 5 | 0.9 | 2.6 | 0.00 | 0.00 | 0.00 | 61 | 1007.9 |
| 20260509203102 | 66 | 5 | 0.9 | 2.6 | 0.00 | 0.00 | 0.00 | 61 | 1007.6 |
| 20260509202840 | 67 | 5 | 1.7 | 3.5 | 0.00 | 0.00 | 0.00 | 60 | 1008.0 |
| 20260509202412 | 67 | 27 | 0.9 | 3.5 | 0.00 | 0.00 | 0.00 | 62 | 1008.0 |
| 20260509201844 | 67 | 19 | 0.9 | 2.6 | 0.00 | 0.00 | 0.00 | 59 | 1008.0 |
| 20260509201538 | 67 | 19 | 0.0 | 1.7 | 0.00 | 0.00 | 0.00 | 60 | 1007.6 |
| 20260509201337 | 68 | 110 | 0.9 | 1.7 | 0.00 | 0.00 | 0.00 | 60 | 1007.9 |
| 20260509200848 | 68 | 103 | 0.0 | 1.7 | 0.00 | 0.00 | 0.00 | 60 | 1007.9 |
| 20260509200343 | 68 | 103 | 0.9 | 1.7 | 0.00 | 0.00 | 0.00 | 55 | 1007.8 |
| 20260509200100 | 67 | 103 | 0.0 | 1.7 | 0.00 | 0.00 | 0.00 | 56 | 1007.5 |
| 20260509195852 | 68 | 103 | 0.0 | 1.7 | 0.00 | 0.02 | 0.00 | 57 | 1007.9 |
| 20260509195344 | 67 | 103 | 0.0 | 1.7 | 0.00 | 0.02 | 0.00 | 57 | 1007.9 |
| 20260509194856 | 67 | 103 | 0.9 | 1.7 | 0.00 | 0.02 | 0.00 | 56 | 1007.9 |
| 20260509194547 | 66 | 103 | 0.0 | 0.9 | 0.00 | 0.02 | 0.00 | 62 | 1007.6 |
| 20260509194346 | 67 | 103 | 0.0 | 0.9 | 0.00 | 0.02 | 0.00 | 60 | 1007.9 |
| 20260509193839 | 68 | 103 | 0.0 | 0.9 | 0.00 | 0.02 | 0.00 | 56 | 1007.9 |
| 20260509193121 | 68 | 103 | 0.0 | 2.6 | 0.00 | 0.02 | 0.00 | 57 | 1007.8 |
| 20260509192854 | 68 | 103 | 0.9 | 2.6 | 0.00 | 0.02 | 0.00 | 56 | 1008.1 |
| 20260509192347 | 69 | 54 | 0.9 | 2.6 | 0.00 | 0.02 | 0.00 | 54 | 1008.0 |
| 20260509191843 | 69 | 5 | 1.7 | 3.5 | 0.00 | 0.02 | 0.00 | 53 | 1008.0 |
| 20260509191539 | 69 | 63 | 0.9 | 3.5 | 0.00 | 0.02 | 0.00 | 54 | 1007.8 |
| 20260509191336 | 70 | 17 | 1.7 | 3.5 | 0.00 | 0.02 | 0.00 | 51 | 1008.0 |
| 20260509190849 | 71 | 351 | 0.9 | 0.0 | 0.00 | 0.00 | 0.00 | 53 | 1007.7 |
| 20260509190419 | 69 | 198 | 0.9 | 3.5 | 0.00 | 0.02 | 0.00 | 57 | 1008.0 |
| 20260509190009 | 68 | 197 | 0.0 | 4.3 | 0.00 | 0.02 | 0.00 | 53 | 1007.8 |
| 20260509185908 | 69 | 113 | 0.9 | 4.3 | 0.00 | 0.07 | 0.00 | 54 | 1008.2 |
| 20260509185339 | 68 | 131 | 1.7 | 3.5 | 0.00 | 0.07 | 0.00 | 56 | 1008.1 |
| 20260509184852 | 68 | 131 | 0.9 | 4.3 | 0.00 | 0.07 | 0.00 | 58 | 1008.2 |
| 20260509184546 | 67 | 178 | 0.9 | 4.3 | 0.00 | 0.07 | 0.00 | 55 | 1007.9 |
| 20260509184345 | 68 | 304 | 0.9 | 4.3 | 0.00 | 0.07 | 0.00 | 57 | 1008.3 |
| 20260509183856 | 67 | 167 | 1.7 | 5.2 | 0.00 | 0.07 | 0.00 | 60 | 1008.3 |
| 20260509183349 | 67 | 207 | 0.9 | 2.6 | 0.00 | 0.07 | 0.00 | 62 | 1008.4 |
| 20260509183058 | 65 | 82 | 0.0 | 3.5 | 0.00 | 0.07 | 0.00 | 61 | 1008.1 |
| 20260509182957 | 66 | 82 | 0.9 | 3.5 | 0.00 | 0.07 | 0.00 | 61 | 1008.4 |
| 20260509182348 | 65 | 77 | 1.7 | 5.2 | 0.00 | 0.07 | 0.00 | 61 | 1008.5 |
| 20260509181900 | 65 | 200 | 1.7 | 5.2 | 0.00 | 0.07 | 0.00 | 61 | 1008.6 |
| 20260509181559 | 65 | 161 | 1.7 | 5.2 | 0.00 | 0.07 | 0.00 | 60 | 1008.3 |
| 20260509181351 | 65 | 314 | 0.9 | 2.6 | 0.00 | 0.07 | 0.00 | 59 | 1008.6 |
| 20260509180843 | 64 | 134 | 0.9 | 2.6 | 0.00 | 0.07 | 0.00 | 60 | 1008.6 |
| 20260509180354 | 64 | 302 | 1.7 | 4.3 | 0.00 | 0.07 | 0.00 | 62 | 1008.6 |
| 20260509180043 | 64 | 156 | 0.9 | 4.3 | 0.00 | 0.07 | 0.00 | 61 | 1008.4 |
| 20260509175843 | 64 | 161 | 2.6 | 4.3 | 0.00 | 0.15 | 0.00 | 60 | 1008.7 |
| 20260509175357 | 65 | 153 | 1.7 | 5.2 | 0.00 | 0.15 | 0.00 | 61 | 1008.8 |
| 20260509174849 | 65 | 209 | 1.7 | 5.2 | 0.00 | 0.15 | 0.00 | 64 | 1008.9 |
| 20260509174542 | 64 | 296 | 0.0 | 2.6 | 0.00 | 0.15 | 0.00 | 67 | 1008.6 |
| 20260509174340 | 64 | 296 | 0.9 | 2.6 | 0.00 | 0.15 | 0.00 | 67 | 1008.9 |
| 20260509173852 | 64 | 263 | 1.7 | 4.3 | 0.00 | 0.15 | 0.00 | 69 | 1009.1 |
| 20260509173344 | 63 | 187 | 1.7 | 4.3 | 0.00 | 0.15 | 0.00 | 67 | 1009.0 |
| 20260509173038 | 63 | 206 | 0.9 | 3.5 | 0.00 | 0.15 | 0.00 | 68 | 1008.8 |
| 20260509172838 | 64 | 56 | 0.9 | 2.6 | 0.00 | 0.15 | 0.00 | 70 | 1009.1 |
| 20260509172350 | 63 | 96 | 0.0 | 2.6 | 0.00 | 0.15 | 0.00 | 71 | 1009.2 |
| 20260509171842 | 61 | 81 | 0.9 | 1.7 | 0.00 | 0.15 | 0.00 | 74 | 1009.2 |
| 20260509171555 | 60 | 81 | 0.0 | 0.9 | 0.00 | 0.15 | 0.00 | 79 | 1009.0 |
| 20260509171354 | 60 | 81 | 0.0 | 0.9 | 0.00 | 0.15 | 0.00 | 78 | 1009.4 |
| 20260509170847 | 60 | 81 | 0.0 | 1.7 | 0.00 | 0.15 | 0.00 | 75 | 1009.6 |
| 20260509170358 | 60 | 81 | 0.0 | 1.7 | 0.00 | 0.15 | 0.00 | 77 | 1009.6 |
| 20260509170056 | 59 | 81 | 0.0 | 1.7 | 0.00 | 0.15 | 0.00 | 78 | 1009.4 |
| 20260509165849 | 60 | 81 | 0.0 | 1.7 | 0.00 | 0.21 | 0.00 | 80 | 1009.7 |
| 20260509165340 | 60 | 81 | 0.0 | 1.7 | 0.00 | 0.21 | 0.00 | 80 | 1009.7 |
| 20260509164853 | 60 | 81 | 0.0 | 2.6 | 0.00 | 0.21 | 0.00 | 82 | 1009.8 |
| 20260509164554 | 59 | 81 | 0.0 | 2.6 | 0.00 | 0.21 | 0.00 | 82 | 1009.6 |
| 20260509163840 | 60 | 162 | 0.0 | 1.7 | 0.00 | 0.21 | 0.00 | 84 | 1010.0 |
| 20260509163045 | 58 | 65 | 0.0 | 0.0 | 0.00 | 0.21 | 0.00 | 84 | 1010.0 |
| 20260509162844 | 58 | 65 | 0.0 | 0.0 | 0.00 | 0.21 | 0.00 | 84 | 1010.3 |
| 20260509162355 | 59 | 65 | 0.0 | 0.0 | 0.00 | 0.21 | 0.00 | 84 | 1010.3 |
| 20260509161848 | 59 | 65 | 0.0 | 1.7 | 0.00 | 0.21 | 0.00 | 82 | 1010.2 |
| 20260509161554 | 58 | 65 | 0.0 | 1.7 | 0.00 | 0.21 | 0.00 | 82 | 1009.9 |
| 20260509161344 | 59 | 65 | 0.0 | 1.7 | 0.00 | 0.21 | 0.00 | 82 | 1010.2 |
| 20260509160856 | 59 | 65 | 0.0 | 0.9 | 0.00 | 0.21 | 0.00 | 84 | 1010.3 |
| 20260509160349 | 59 | 65 | 0.0 | 1.7 | 0.00 | 0.21 | 0.00 | 85 | 1010.3 |
| 20260509160040 | 58 | 65 | 0.0 | 2.6 | 0.00 | 0.21 | 0.00 | 84 | 1010.0 |
| 20260509155838 | 58 | 53 | 0.0 | 2.6 | 0.00 | 0.30 | 0.00 | 84 | 1010.2 |
| 20260509155351 | 58 | 53 | 0.0 | 1.7 | 0.00 | 0.30 | 0.00 | 85 | 1010.2 |
| 20260509154842 | 58 | 209 | 0.0 | 0.0 | 0.00 | 0.30 | 0.00 | 84 | 1010.2 |
| 20260509154356 | 58 | 209 | 0.0 | 0.0 | 0.00 | 0.30 | 0.00 | 85 | 1010.3 |